sat.trackr.live / text

‹ back to catalog

STARLINK-33881

NORAD 63779 · 2025-091E

PAYLOAD ACTIVE UNKNOWN

§ Identity

Operator
Country
US
Launch date
2025-05-02
Launch site
AFETR
Launch vehicle
Mass (kg)
RCS (m²)

Purposes: comms

External: N2YO · Heavens-Above · Gunter

§ Orbital elements

Epoch: 2026-05-24T21:41:42.095616Z

Period
94.27 min
Inclination
43.0016°
Eccentricity
0.0001472
Mean motion
15.27586445 rev/d
Perigee alt
482.0 km
Apogee alt
484.0 km
Semi-major
6,861.2 km
B*
6.1858e-4
RAAN
342.5104°
Arg perigee
268.4731°
Mean anomaly
91.5952°
Rev number
6,055

§ Raw data

STARLINK-338811 63779U 25091E   26144.90395944  .00016802  00000+0  61858-3 0  99962 63779  43.0016 342.5104 0001472 268.4731  91.5952 15.27586445 60556

JSON: /api/v1/satellites/63779 · /tle

For live sub-satellite position, see the globe view (requires WebGL).

§ Visibility from observer

Set your observer location to see the next 7 days of passes ≥ 10°. The values pass through the URL so the page stays shareable.

No JS? Fill the form by hand. The geolocation button needs JavaScript.